timestamp,temp
1533084780,73.000000
1533088380,73.000000
1533091980,72.000000
1533092400,72.000000
1533095580,71.000000
1533099180,70.000000
1533102780,69.000000
1533106380,68.000000
1533109980,66.000000
1533113580,65.000000
1533114000,65.000000
1533117180,64.000000
1533120780,64.000000
1533124380,67.000000
1533127980,70.000000
1533131580,74.000000
1533135180,79.000000
1533135600,79.000000
1533138780,80.000000
1533142380,83.000000
1533145980,84.000000
1533149580,84.000000
1533153060,82.000000
1533153180,82.000000
1533155460,77.000000
1533156780,77.000000
1533157200,77.000000
1533160380,77.000000
1533163980,77.000000
1533167580,79.000000
1533171180,77.000000
1533174780,76.000000
1533178380,75.000000
1533178800,75.000000
1533181980,75.000000
1533185580,74.000000
1533189180,74.000000
1533192780,73.000000
1533196380,72.000000
1533199980,71.000000
1533200400,71.000000
1533203580,70.000000
1533207180,70.000000
1533210780,70.000000
1533214380,73.000000
1533217980,75.000000
1533221580,78.000000
1533222000,78.000000
1533225180,82.000000
1533228780,85.000000
1533232380,86.000000
1533235980,86.000000
1533239580,86.000000
1533243180,85.000000
1533243600,85.000000
1533246780,84.000000
1533250380,85.000000
1533253980,83.000000
1533257580,78.000000
1533261180,77.000000
1533264780,76.000000
1533265200,76.000000
1533268380,75.000000
1533271980,74.000000
1533275580,74.000000
1533279180,73.000000
1533282780,73.000000
1533286380,69.000000
1533286800,69.000000
1533289980,68.000000
1533293580,67.000000
1533297180,68.000000
1533300780,73.000000
1533304380,77.000000
1533307980,78.000000
1533308400,78.000000
1533311580,81.000000
1533315180,83.000000
1533318780,85.000000
1533322380,88.000000
1533325980,85.000000
1533329580,84.000000
1533330000,84.000000
1533333180,84.000000
1533336780,81.000000
1533340380,80.000000
1533343980,77.000000
1533347580,77.000000
1533351180,77.000000
1533351600,77.000000
1533354780,76.000000
1533358380,75.000000
1533361980,76.000000
1533365580,76.000000
1533369180,75.000000
1533372780,75.000000
1533373200,75.000000
1533376380,73.000000
1533379980,73.000000
1533383580,74.000000
1533387180,78.000000
1533390780,83.000000
1533394380,86.000000
1533394800,86.000000
1533397980,91.000000
1533401580,93.000000
1533405180,95.000000
1533408780,96.000000
1533412380,96.000000
1533415980,96.000000
1533416400,96.000000
1533419580,94.000000
1533423180,93.000000
1533426780,91.000000
1533430380,88.000000
1533433980,86.000000
1533437580,84.000000
1533438000,84.000000
1533441180,82.000000
1533444780,81.000000
1533448380,80.000000
1533451980,79.000000
1533455580,80.000000
1533459180,78.000000
1533459600,78.000000
1533462780,77.000000
1533466380,77.000000
1533469980,77.000000
1533473580,78.000000
1533477180,77.000000
1533480780,80.000000
1533481200,80.000000
1533484380,84.000000
1533487980,89.000000
1533491580,91.000000
1533495180,94.000000
1533498780,95.000000
1533502380,94.000000
1533502800,94.000000
1533505980,93.000000
1533509580,93.000000
1533513180,90.000000
1533516780,88.000000
1533520380,87.000000
1533523980,85.000000
1533524400,85.000000
1533526440,85.000000
1533527580,78.000000
1533528240,78.000000
1533531180,77.000000
1533534780,77.000000
1533538380,76.000000
1533541980,78.000000
1533545580,77.000000
1533546000,77.000000
1533549180,78.000000
1533551520,77.000000
1533552780,76.000000
1533554460,76.000000
1533556380,76.000000
1533559980,76.000000
1533563580,76.000000
1533564900,76.000000
1533567180,74.000000
1533567600,74.000000
1533568080,73.000000
1533568500,73.000000
1533570780,74.000000
1533573540,74.000000
1533574380,75.000000
1533576780,77.000000
1533577980,78.000000
1533581580,83.000000
1533585180,84.000000
1533587520,84.000000
1533588780,82.000000
1533589200,82.000000
1533591120,79.000000
1533592380,79.000000
1533592800,79.000000
1533595980,80.000000
1533599580,81.000000
1533603180,78.000000
1533606780,76.000000
1533610380,76.000000
1533610800,76.000000
1533613980,76.000000
1533617580,75.000000
1533621180,75.000000
1533624780,75.000000
1533628380,73.000000
1533631980,73.000000
1533632400,73.000000
1533635580,73.000000
1533637320,72.000000
1533638100,73.000000
1533639180,72.000000
1533642780,73.000000
1533646380,76.000000
1533649980,78.000000
1533653580,80.000000
1533654000,80.000000
1533657180,81.000000
1533660780,84.000000
1533664380,85.000000
1533667980,81.000000
1533671460,77.000000
1533671580,76.000000
1533672540,75.000000
1533672720,74.000000
1533673080,74.000000
1533673740,74.000000
1533674700,74.000000
1533675180,75.000000
1533675600,75.000000
1533677580,75.000000
1533678660,73.000000
1533678780,74.000000
1533682380,74.000000
1533685980,75.000000
1533689580,73.000000
1533693180,73.000000
1533696780,72.000000
1533697200,72.000000
1533700380,72.000000
1533703980,71.000000
1533707580,71.000000
1533709680,71.000000
1533711060,72.000000
1533711180,71.000000
1533712560,71.000000
1533714780,71.000000
1533718260,70.000000
1533718380,70.000000
1533718800,70.000000
1533721980,70.000000
1533725580,70.000000
1533726960,71.000000
1533729180,72.000000
1533732660,73.000000
1533732780,74.000000
1533736380,75.000000
1533739980,75.000000
1533740400,75.000000
1533743580,74.000000
1533747180,77.000000
1533750780,79.000000
1533754260,79.000000
1533754380,79.000000
1533757980,81.000000
1533761580,81.000000
1533765180,81.000000
1533768780,79.000000
1533772380,79.000000
1533775980,78.000000
1533779580,76.000000
1533783180,76.000000
1533783600,76.000000
1533786780,75.000000
1533790380,72.000000
1533793980,71.000000
1533797580,69.000000
1533801180,70.000000
1533804780,70.000000
1533805200,70.000000
1533808380,68.000000
1533811980,68.000000
1533815580,69.000000
1533819180,74.000000
1533822780,76.000000
1533826380,80.000000
1533826800,80.000000
1533829980,84.000000
1533833580,86.000000
1533837180,89.000000
1533840780,89.000000
1533844380,89.000000
1533847980,91.000000
1533848400,91.000000
1533851580,91.000000
1533855180,90.000000
1533858780,82.000000
1533862260,81.000000
1533862380,80.000000
1533863760,74.000000
1533864840,73.000000
1533865320,75.000000
1533865980,74.000000
1533869580,75.000000
1533870000,75.000000
1533873180,76.000000
1533876780,75.000000
1533880380,73.000000
1533883980,74.000000
1533887580,73.000000
1533891180,72.000000
1533891600,72.000000
1533894780,72.000000
1533898380,73.000000
1533901980,74.000000
1533905580,77.000000
1533909180,79.000000
1533912780,82.000000
1533913200,82.000000
1533916380,83.000000
1533919980,84.000000
1533923580,83.000000
1533925560,82.000000
1533927180,84.000000
1533930780,83.000000
1533934380,82.000000
1533934800,82.000000
1533937980,81.000000
1533941580,80.000000
1533945180,78.000000
1533948780,76.000000
1533952380,75.000000
1533955980,75.000000
1533956400,75.000000
1533959580,74.000000
1533963180,74.000000
1533966780,74.000000
1533970380,73.000000
1533973980,71.000000
1533977580,70.000000
1533978000,70.000000
1533981180,70.000000
1533984780,69.000000
1533988380,71.000000
1533991980,75.000000
1533995580,78.000000
1533999180,82.000000
1533999600,82.000000
1534002780,85.000000
1534006380,86.000000
1534009980,88.000000
1534013580,88.000000
1534017180,88.000000
1534020780,88.000000
1534021200,88.000000
1534024380,85.000000
1534027980,83.000000
1534031580,84.000000
1534035180,81.000000
1534038780,81.000000
1534042380,79.000000
1534042800,79.000000
1534045980,78.000000
1534049580,75.000000
1534053180,74.000000
1534056780,74.000000
1534060380,73.000000
1534063980,72.000000
1534064400,72.000000
1534067580,71.000000
1534071180,70.000000
1534074780,71.000000
1534078380,75.000000
1534081980,80.000000
1534085580,84.000000
1534086000,84.000000
1534089180,87.000000
1534092780,87.000000
1534096380,87.000000
1534099980,87.000000
1534103580,87.000000
1534107180,87.000000
1534107600,87.000000
1534110780,87.000000
1534117980,84.000000
1534121580,80.000000
1534125180,78.000000
